Flag for U.S.A. Weather past 2 weeks in New Haven, Connecticut, U.S.A.

Now
78 °F

Sunny.


Feels Like: 80 °F
Forecast: 61 / 81 °F
Wind: 6 mph from Southeast

Location: Tweed-New Haven Airport

Current Time: Aug 20, 2014 at 7:25:15 PM

Latest Report: Aug 20, 2014 at 6:53 PM


Visibility: 10 mi

Pressure: 30.00 "Hg

Humidity: 60%

Dew point: 63 °F

Location of New HavenLocation

Historic Weather in New Haven — Graph

°F

New Haven temperature yesterday

Maximum temperature yesterday: 78 °F (at 1:53 PM)
Minimum temperature yesterday: 57 °F (at 3:53 AM)
Average temperature yesterday: 69 °F

Past Weeks' High & Low Weather Summary

 TemperatureHumidityPressure
High86 °F (Aug 10, 11:53 AM)97% (Aug 20, 5:53 AM)30.15 "Hg (Aug 20, 5:53 AM)
Low57 °F (Aug 19, 3:53 AM)32% (Aug 10, 11:53 AM)29.63 "Hg (Aug 13, 4:53 PM)
Average73 °F63%29.95 "Hg
* Reported Aug 5 5:53 PM — Aug 20 5:53 PM, New Haven, Weather by CustomWeather, © 2014

Note: Actual official high and low records may vary slightly from our data, if they occured in-between our weather recording intervals... More about our weather records

Advertising

New Haven weather history for previous 24 hours

 ConditionsComfort  
Time TempWeatherWind HumidityBarometerVisibility
5:53 PM
Aug 20
79 °FSunny.6 mph50%30.00 "Hg10 mi
4:53 PM81 °FSunny.7 mph45%29.99 "Hg10 mi
3:53 PM82 °FScattered clouds.6 mph38%29.98 "Hg10 mi
2:53 PM80 °FScattered clouds.7 mph45%29.99 "Hg10 mi
1:53 PM79 °FPassing clouds.6 mph50%30.00 "Hg10 mi
12:53 PM77 °FPassing clouds.6 mph64%30.01 "Hg10 mi
11:53 AM75 °FPassing clouds.3 mph71%30.02 "Hg10 mi
11:01 AM71 °FPartly sunny.3 mph81%30.03 "Hg10 mi
9:53 AM70 °FLow clouds.5 mph84%30.01 "Hg3 mi
8:53 AM68 °FFog.3 mph93%30.01 "Hg2 mi
8:00 AM67 °FFog.5 mph93%30.00 "Hg2 mi
6:53 AM65 °FFog.5 mph94%29.99 "Hg0 mi
5:53 AM63 °FFog.No wind97%29.98 "Hg0 mi
4:53 AM61 °FFog.No wind93%29.96 "Hg6 mi
3:53 AM62 °FClear.No wind93%29.96 "Hg9 mi
2:53 AM63 °FClear.No wind90%29.95 "Hg10 mi
1:53 AM64 °FClear.3 mph90%29.95 "Hg10 mi
12:53 AM65 °FClear.No wind91%29.96 "Hg10 mi
11:53 PM
Aug 19
65 °FClear.No wind91%29.95 "Hg10 mi
10:53 PM69 °FClear.3 mph84%29.94 "Hg10 mi
9:53 PM70 °FClear.5 mph84%29.94 "Hg10 mi
8:53 PM70 °FClear.7 mph81%29.92 "Hg10 mi
7:53 PM72 °FScattered clouds.6 mph71%29.91 "Hg10 mi
Weather by CustomWeather, © 2014

See weather overviewHow to use our weather pages